Location: Austin
(30.3000°N, 97.7500°W)
Time: 07:58:27
(UTC-06:00)

Fermi - Pass Details

Date: 18 November 2025
Orbit: 492 x 503 km, 25.6° (Epoch: 07 December)

Event Time Altitude Azimuth Distance (km) Brightness Sun altitude
Rises 18:37:56 0° 264° (W) 2,564 9.1 -14.2°
Reaches altitude 10° 18:40:17 10° 254° (WSW) 1,683 7.7 -14.7°
Maximum altitude 18:43:49 34° 189° (S) 835 4.9 -15.4°
Enters shadow 18:46:21 16° 131° (SE) 1,343 5.5 -15.9°
